Date,TemperatureHighF,TemperatureAvgF,TemperatureLowF,DewpointHighF,DewpointAvgF,DewpointLowF,HumidityHigh,HumidityAvg,HumidityLow,PressureMaxIn,PressureMinIn,WindSpeedMaxMPH,WindSpeedAvgMPH,GustSpeedMaxMPH,PrecipitationSumIn
2013-1-1,52.0,30.1,17.0,17.0,9.6,3.0,86,48,13,0.00,40.00,8,2,27,0.10
2013-1-2,55.0,35.5,25.0,25.0,16.2,3.0,82,48,26,0.00,40.00,2,0,15,0.06
2013-1-3,55.0,33.4,23.0,20.0,13.0,8.0,64,45,18,0.00,40.00,3,0,9,0.01
2013-1-4,57.0,35.0,24.0,30.0,19.5,12.0,96,57,20,0.00,40.00,3,0,12,0.00
2013-1-5,55.0,37.1,27.0,29.0,22.7,17.0,92,59,32,0.00,40.00,3,0,14,0.00
2013-1-6,34.0,30.2,25.0,32.0,27.7,22.0,100,91,70,0.00,40.00,4,0,10,0.04
2013-1-7,56.0,37.3,25.0,30.0,25.1,18.0,100,65,34,0.00,40.00,3,0,12,0.06
2013-1-8,66.0,41.3,32.0,34.0,25.1,16.0,79,55,27,0.00,40.00,2,0,9,0.03
2013-1-9,57.0,39.4,26.0,33.0,22.8,10.0,100,56,27,0.00,40.00,5,2,23,0.00
2013-1-10,32.0,23.5,17.0,31.0,19.9,12.0,100,88,53,0.00,40.00,3,0,11,0.00
2013-1-11,30.0,22.6,13.0,22.0,15.8,9.0,100,78,41,0.00,40.00,1,0,8,0.03
2013-1-12,39.0,20.0,5.0,16.0,6.2,-4.0,86,58,27,0.00,40.00,3,0,8,0.08
2013-1-13,39.0,20.0,5.0,8.0,-2.3,-10.0,67,40,21,0.00,40.00,6,1,22,0.03
2013-1-14,48.0,27.7,10.0,19.0,2.5,-9.0,53,35,17,0.00,40.00,7,2,22,0.06
2013-1-15,63.0,42.2,29.0,21.0,15.3,11.0,60,36,13,0.00,40.00,9,2,25,0.18
2013-1-16,66.0,46.1,33.0,14.0,2.8,-14.0,30,18,5,0.00,40.00,8,2,24,0.02
2013-1-17,70.0,40.5,30.0,18.0,5.8,-4.0,42,24,7,0.00,40.00,5,1,12,0.00
2013-1-18,64.0,38.2,28.0,19.0,7.9,-6.0,43,29,10,0.00,40.00,3,0,11,0.00
2013-1-19,65.0,39.7,27.0,19.0,8.6,-1.0,49,29,11,0.00,40.00,2,0,8,0.00
2013-1-20,67.0,37.9,28.0,17.0,6.4,-4.0,41,29,6,0.00,40.00,5,1,13,0.00
2013-1-21,70.0,42.0,30.0,20.0,12.3,3.0,49,31,9,0.00,40.00,5,0,11,0.00
2013-1-22,66.0,42.0,31.0,22.0,14.6,7.0,48,35,12,0.00,40.00,1,0,9,0.00
2013-1-23,59.0,44.2,34.0,33.0,15.5,6.0,92,36,12,0.00,40.00,3,0,14,0.00
2013-1-24,45.0,39.9,35.0,44.0,39.7,35.0,100,99,91,0.00,40.00,0,0,4,0.25
2013-1-25,52.0,41.2,36.0,50.0,40.1,36.0,100,96,65,0.00,40.00,0,0,6,0.23
2013-1-26,52.0,39.2,33.0,47.0,33.9,25.0,100,85,41,0.00,40.00,4,1,13,0.05
2013-1-27,42.0,30.9,23.0,33.0,23.9,14.0,100,78,38,0.00,40.00,3,1,11,0.08
2013-1-28,46.0,27.2,16.0,28.0,15.8,9.0,98,67,26,0.00,40.00,3,0,11,0.01
2013-1-29,59.0,38.3,28.0,28.0,22.8,20.0,90,56,29,0.00,40.00,5,1,24,0.00
2013-1-30,64.0,42.1,32.0,30.0,23.6,8.0,74,53,13,0.00,40.00,4,0,15,0.00
2013-1-31,63.0,45.5,30.0,28.0,21.1,16.0,61,41,18,0.00,40.00,2,0,9,0.00
2013-2-1,64.0,41.7,29.0,29.0,16.1,6.0,60,38,10,0.00,40.00,3,0,10,0.00
2013-2-2,56.0,39.5,32.0,32.0,20.5,12.0,65,47,29,0.00,40.00,0,0,7,0.00
2013-2-3,58.0,40.4,31.0,24.0,17.3,11.0,55,41,22,0.00,40.00,3,1,15,0.00
2013-2-4,62.0,42.5,31.0,28.0,20.2,12.0,73,44,18,0.00,40.00,3,1,9,0.00
2013-2-5,57.0,38.4,28.0,33.0,22.4,16.0,100,58,20,0.00,40.00,6,1,15,0.00
2013-2-6,55.0,35.3,24.0,28.0,13.2,-5.0,100,46,9,0.00,40.00,3,0,12,0.00
2013-2-7,37.0,28.2,24.0,32.0,21.9,11.0,100,79,48,0.00,40.00,3,0,10,0.00
2013-2-8,39.0,25.7,17.0,27.0,17.8,12.0,100,74,43,0.00,40.00,2,0,9,0.07
2013-2-9,47.0,30.2,20.0,25.0,14.5,6.0,91,56,18,0.00,40.00,3,1,15,0.02
2013-2-10,44.0,33.9,24.0,15.0,9.7,5.0,63,38,21,0.00,40.00,6,1,18,0.01
2013-2-11,51.0,35.2,26.0,16.0,7.6,0.0,56,33,14,0.00,40.00,7,2,25,0.00
2013-2-12,52.0,34.7,25.0,23.0,13.3,5.0,67,42,25,0.00,40.00,3,1,11,0.00
2013-2-13,57.0,40.1,29.0,23.0,16.7,13.0,55,40,23,0.00,40.00,7,1,18,0.00
2013-2-14,64.0,43.7,30.0,22.0,15.4,9.0,53,35,13,0.00,40.00,5,1,16,0.00
2013-2-15,66.0,43.7,32.0,24.0,15.6,7.0,53,34,14,0.00,40.00,4,1,11,0.00
2013-2-16,60.0,42.2,31.0,23.0,14.7,2.0,59,35,17,0.00,40.00,3,1,10,0.00
2013-2-17,57.0,38.4,28.0,24.0,15.5,8.0,72,42,20,0.00,40.00,4,1,10,0.00
2013-2-18,54.0,37.1,27.0,33.0,19.4,14.0,100,53,23,0.00,40.00,5,1,17,0.00
2013-2-19,36.0,28.4,19.0,32.0,20.1,12.0,100,74,43,0.00,40.00,5,1,17,0.00
2013-2-20,50.0,30.3,18.0,29.0,19.2,3.0,100,70,14,0.00,40.00,5,1,18,0.33
2013-2-21,48.0,33.1,23.0,27.0,17.2,4.0,100,61,16,0.00,40.00,6,1,18,0.05
2013-2-22,55.0,35.8,23.0,27.0,18.8,12.0,79,53,24,0.00,40.00,3,0,12,0.01
2013-2-23,41.0,33.7,29.0,30.0,19.7,2.0,92,59,28,0.00,40.00,4,2,19,0.03
2013-2-24,57.0,37.0,25.0,18.0,3.7,-6.0,55,28,8,0.00,40.00,7,1,19,0.02
2013-2-25,52.0,35.8,27.0,23.0,15.3,8.0,75,45,26,0.00,40.00,5,1,15,0.00
2013-2-26,58.0,37.0,23.0,18.0,1.9,-14.0,67,28,6,0.00,40.00,8,1,16,0.00
2013-2-27,56.0,39.1,28.0,18.0,8.2,1.0,57,30,13,0.00,40.00,4,1,11,0.00
2013-2-28,61.0,42.2,29.0,29.0,22.2,13.0,73,47,29,0.00,40.00,4,1,13,0.00
2013-3-1,68.0,46.8,32.0,35.0,28.9,22.0,80,54,20,0.00,40.00,4,1,11,0.00
2013-3-2,65.0,47.4,34.0,30.0,24.0,19.0,80,44,18,0.00,40.00,7,2,20,0.00
2013-3-3,43.0,38.1,32.0,40.0,36.9,28.0,100,96,54,0.00,40.00,0,0,7,0.47
2013-3-4,59.0,40.6,30.0,42.0,33.6,30.0,100,81,38,0.00,40.00,2,0,9,0.01
2013-3-5,52.0,43.5,31.0,38.0,28.3,22.0,100,58,38,0.00,40.00,7,3,20,0.00
2013-3-6,42.0,33.2,29.0,33.0,28.5,20.0,100,85,49,0.00,40.00,7,1,24,0.01
2013-3-7,46.0,32.9,28.0,33.0,29.1,24.0,100,88,42,0.00,40.00,0,0,11,0.33
2013-3-8,52.0,32.7,24.0,38.0,27.2,21.0,100,85,29,0.00,40.00,4,0,14,0.34
2013-3-9,55.0,36.0,24.0,34.0,22.0,7.0,100,67,15,0.00,40.00,5,1,13,0.72
2013-3-10,68.0,41.8,26.0,33.0,20.6,2.0,79,47,7,0.00,40.00,3,1,24,0.03
2013-3-11,68.0,44.1,31.0,37.0,23.9,14.0,97,49,15,0.00,40.00,3,0,9,0.01
2013-3-12,70.0,47.7,33.0,37.0,29.6,21.0,83,53,24,0.00,40.00,3,0,11,0.00
2013-3-13,76.0,51.1,35.0,40.0,31.4,14.0,100,56,10,0.00,40.00,4,1,13,0.00
2013-3-14,72.0,53.5,35.0,38.0,30.1,21.0,73,46,17,0.00,40.00,6,1,15,0.00
2013-3-15,68.0,49.7,34.0,37.0,26.9,9.0,65,45,10,0.00,40.00,4,1,12,0.00
2013-3-16,65.0,46.6,33.0,29.0,20.8,15.0,67,40,14,0.00,40.00,4,1,14,0.00
2013-3-17,62.0,44.9,30.0,29.0,21.2,7.0,77,46,13,0.00,40.00,4,1,14,0.00
2013-3-18,61.0,43.9,31.0,30.0,21.0,10.0,80,45,16,0.00,40.00,4,1,13,0.00
2013-3-19,60.0,45.9,39.0,41.0,29.5,24.0,100,57,27,0.00,40.00,4,1,15,0.14
2013-3-20,46.0,38.9,33.0,41.0,37.5,33.0,100,95,76,0.00,40.00,3,0,10,0.86
2013-3-21,55.0,41.5,31.0,39.0,32.1,24.0,100,75,37,0.00,40.00,4,1,12,0.05
2013-3-22,56.0,39.3,27.0,33.0,18.6,5.0,100,50,15,0.00,40.00,4,1,13,0.00
2013-3-23,60.0,40.7,27.0,19.0,9.3,-5.0,51,31,7,0.00,40.00,4,1,11,0.00
2013-3-24,64.0,44.7,31.0,30.0,22.9,17.0,76,46,18,0.00,40.00,4,1,11,0.00
2013-3-25,65.0,44.9,29.0,29.0,20.3,8.0,69,42,11,0.00,40.00,4,1,13,0.00
2013-3-26,54.0,45.6,33.0,41.0,31.0,20.0,100,59,40,0.00,40.00,3,0,12,0.00
2013-3-27,59.0,44.0,33.0,40.0,33.7,29.0,100,75,35,0.00,40.00,5,1,15,0.00
2013-3-28,61.0,45.8,35.0,42.0,37.7,30.0,100,79,33,0.00,40.00,5,1,11,0.39
2013-3-29,67.0,47.9,32.0,45.0,36.4,31.0,100,72,26,0.00,40.00,4,0,14,0.32
2013-3-30,62.0,46.6,35.0,50.0,39.3,-99.9,100,85,36,0.00,40.00,3,0,9,0.25
2013-3-31,52.0,41.2,33.0,44.0,36.8,30.0,100,87,45,0.00,40.00,3,0,13,0.72
2013-4-1,48.0,39.0,32.0,42.0,35.3,32.0,100,88,58,0.00,40.00,1,0,12,0.32
2013-4-2,62.0,42.8,31.0,41.0,34.6,29.0,100,78,33,0.00,40.00,4,1,10,0.01
2013-4-3,68.0,47.2,32.0,45.0,37.9,31.0,100,76,31,0.00,40.00,4,1,12,0.00
2013-4-4,53.0,45.2,37.0,46.0,40.8,31.0,100,86,60,0.00,40.00,3,0,13,0.40
2013-4-5,56.0,44.3,33.0,45.0,35.6,31.0,100,76,42,0.00,40.00,5,1,13,0.01
2013-4-6,56.0,44.1,36.0,43.0,36.1,26.0,100,76,47,0.00,40.00,5,1,12,0.01
2013-4-7,58.0,44.8,37.0,41.0,33.3,26.0,100,69,36,0.00,40.00,5,2,23,0.00
2013-4-8,48.0,37.3,32.0,35.0,23.8,13.0,100,64,29,0.00,40.00,5,2,21,0.26
2013-4-9,58.0,43.6,31.0,16.0,9.2,5.0,44,27,12,0.00,40.00,6,3,26,0.08
2013-4-10,72.0,57.2,36.0,36.0,24.9,9.0,68,31,18,0.00,40.00,5,2,27,0.00
2013-4-11,70.0,53.6,37.0,42.0,36.4,26.0,100,56,19,0.00,40.00,5,1,14,0.00
2013-4-12,70.0,54.0,33.0,38.0,31.2,23.0,79,46,20,0.00,40.00,3,1,12,0.00
2013-4-13,68.0,53.0,36.0,42.0,34.6,30.0,100,56,27,0.00,40.00,4,2,14,0.00
2013-4-14,61.0,49.2,33.0,39.0,26.8,21.0,100,48,22,0.00,40.00,6,2,17,0.00
2013-4-15,49.0,37.3,28.0,34.0,28.4,21.0,100,75,33,0.00,40.00,5,1,18,0.00
2013-4-16,48.0,32.8,24.0,32.0,21.1,8.0,100,68,24,0.00,40.00,5,1,17,0.66
2013-4-17,51.0,36.7,25.0,18.0,11.2,4.0,69,39,16,0.00,40.00,8,1,17,0.08
2013-4-18,63.0,47.4,29.0,29.0,17.1,4.0,67,32,18,0.00,40.00,5,2,16,0.02
2013-4-19,67.0,52.1,32.0,32.0,27.1,19.0,69,41,21,0.00,40.00,4,1,13,0.00
2013-4-20,75.0,56.2,33.0,33.0,27.2,19.0,84,40,12,0.00,40.00,5,1,12,0.00
2013-4-21,75.0,57.6,35.0,36.0,28.7,20.0,65,37,15,0.00,40.00,5,1,13,0.00
2013-4-22,76.0,57.0,39.0,39.0,31.9,19.0,73,44,16,0.00,40.00,6,1,18,0.00
2013-4-23,76.0,55.3,39.0,30.0,18.1,2.0,58,25,11,0.00,40.00,8,3,23,0.00
2013-4-24,71.0,55.0,38.0,26.0,12.3,5.0,58,22,9,0.00,40.00,8,4,22,0.00
2013-4-25,70.0,54.9,36.0,32.0,22.6,11.0,54,31,16,0.00,40.00,4,1,13,0.00
2013-4-26,77.0,56.5,37.0,37.0,29.3,18.0,60,40,11,0.00,40.00,5,1,16,0.00
2013-4-27,78.0,60.9,41.0,41.0,31.9,24.0,63,38,14,0.00,40.00,4,1,12,0.00
2013-4-28,78.0,62.6,37.0,40.0,29.7,14.0,67,33,14,0.00,40.00,3,1,11,0.00
2013-4-29,77.0,60.2,42.0,40.0,34.7,30.0,64,42,22,0.00,40.00,5,1,13,0.00
2013-4-30,76.0,61.7,42.0,42.0,34.0,4.0,66,38,13,0.00,40.00,8,2,16,0.00
2013-5-1,72.0,55.9,44.0,7.0,-1.2,-7.0,13,10,6,0.00,40.00,9,5,26,0.00
2013-5-2,79.0,61.4,37.0,32.0,20.5,-4.0,46,22,9,0.00,40.00,4,1,22,0.00
2013-5-3,80.0,57.8,43.0,38.0,30.5,23.0,54,38,13,0.00,40.00,3,0,13,0.00
2013-5-4,74.0,60.8,44.0,25.0,19.6,11.0,47,22,12,0.00,40.00,7,3,21,0.00
2013-5-5,65.0,51.2,43.0,37.0,29.5,22.0,70,45,23,0.00,40.00,7,2,20,0.00
2013-5-6,47.0,43.0,37.0,45.0,40.7,34.0,100,92,69,0.00,40.00,0,0,5,1.05
2013-5-7,49.0,43.0,39.0,45.0,41.4,36.0,100,95,71,0.00,40.00,1,0,7,0.41
2013-5-8,60.0,47.8,41.0,49.0,45.1,41.0,100,92,64,0.00,40.00,3,0,14,0.36
2013-5-9,67.0,53.2,38.0,51.0,45.3,38.0,100,78,49,0.00,40.00,4,1,13,0.01
2013-5-10,77.0,61.5,42.0,52.0,44.5,34.0,100,62,25,0.00,40.00,5,1,14,0.00
2013-5-11,84.0,62.6,46.0,52.0,39.9,-99.9,99,51,11,0.00,40.00,3,1,13,0.00
2013-5-12,82.0,64.6,46.0,45.0,35.5,30.0,69,38,16,0.00,40.00,5,1,18,0.00
2013-5-13,81.0,66.6,46.0,42.0,32.8,28.0,55,32,17,0.00,40.00,5,2,20,0.00
2013-5-14,78.0,58.8,47.0,49.0,38.1,30.0,88,51,19,0.00,40.00,7,1,21,0.01
2013-5-15,73.0,56.1,42.0,47.0,29.6,14.0,92,46,11,0.00,40.00,8,2,20,0.01
2013-5-16,51.0,42.2,39.0,45.0,17.6,-99.9,100,71,51,0.00,40.00,2,0,11,0.09
2013-5-17,64.0,47.8,35.0,43.0,32.8,-99.9,100,70,32,0.00,40.00,5,1,12,0.04
2013-5-18,67.0,49.9,32.0,37.0,27.3,20.0,100,48,20,0.00,40.00,5,2,13,0.00
2013-5-19,73.0,54.9,35.0,38.0,30.9,21.0,90,48,14,0.00,40.00,5,1,14,0.00
2013-5-20,77.0,60.6,39.0,33.0,25.1,16.0,50,28,12,0.00,40.00,4,2,14,0.00
2013-5-21,69.0,57.0,40.0,33.0,27.1,16.0,62,35,17,0.00,40.00,8,3,21,0.00
2013-5-22,57.0,46.6,32.0,28.0,19.4,13.0,69,37,17,0.00,40.00,6,2,17,0.00
2013-5-23,58.0,42.9,28.0,26.0,19.0,4.0,58,41,13,0.00,40.00,5,1,15,0.00
2013-5-24,66.0,49.4,31.0,31.0,23.2,15.0,61,38,23,0.00,40.00,6,2,16,0.00
2013-5-25,67.0,52.8,33.0,32.0,25.6,19.0,66,39,18,0.00,40.00,5,2,23,0.00
2013-5-26,66.0,53.9,33.0,36.0,30.4,23.0,77,45,24,0.00,40.00,6,2,15,0.00
2013-5-27,62.0,46.5,33.0,48.0,37.0,24.0,100,74,29,0.00,40.00,3,0,13,0.17
2013-5-28,64.0,52.6,44.0,48.0,43.4,37.0,100,76,38,0.00,40.00,3,1,10,0.40
2013-5-29,65.0,52.7,43.0,52.0,44.0,39.0,100,77,41,0.00,40.00,4,1,13,0.07
2013-5-30,70.0,55.7,35.0,45.0,34.4,25.0,100,53,21,0.00,40.00,5,1,14,0.03
2013-5-31,83.0,64.8,38.0,42.0,34.1,18.0,68,36,9,0.00,40.00,4,1,16,0.00
2013-6-1,85.0,69.2,45.0,42.0,33.7,23.0,53,30,15,0.00,40.00,4,1,14,0.00
2013-6-2,85.0,66.6,48.0,44.0,36.6,32.0,59,37,15,0.00,40.00,5,1,14,0.00
2013-6-3,87.0,69.4,50.0,46.0,38.4,31.0,58,35,14,0.00,40.00,5,1,15,0.00
2013-6-4,88.0,71.2,52.0,47.0,42.1,30.0,67,38,18,0.00,40.00,5,1,14,0.00
2013-6-5,88.0,71.6,52.0,52.0,44.1,33.0,61,40,19,0.00,40.00,4,1,12,0.00
2013-6-6,91.0,69.2,53.0,48.0,41.8,30.0,61,41,14,0.00,40.00,5,0,22,0.00
2013-6-7,94.0,73.2,53.0,47.0,35.8,30.0,50,30,11,0.00,40.00,5,1,12,0.00
2013-6-8,98.0,76.7,57.0,54.0,40.0,24.0,57,30,12,0.00,40.00,6,1,15,0.00
2013-6-9,92.0,73.2,60.0,55.0,46.4,36.0,70,41,20,0.00,40.00,4,1,13,0.00
2013-6-10,74.0,61.6,50.0,54.0,44.8,30.0,96,57,25,0.00,40.00,5,2,14,0.00
2013-6-13,73.0,64.6,44.0,28.0,20.7,2.0,45,21,7,0.00,40.00,5,2,16,0.00
2013-6-14,78.0,64.6,43.0,34.0,27.3,16.0,48,26,11,0.00,40.00,4,2,17,0.00
2013-6-15,77.0,63.5,42.0,35.0,28.6,22.0,51,30,15,0.00,40.00,6,2,14,0.00
2013-6-16,77.0,65.0,43.0,34.0,29.0,16.0,49,28,11,0.00,40.00,5,2,13,0.00
2013-6-17,77.0,64.4,42.0,34.0,30.0,21.0,52,30,16,0.00,40.00,6,2,16,0.00
2013-6-18,72.0,60.8,39.0,34.0,28.1,21.0,58,31,19,0.00,40.00,7,3,19,0.00
2013-6-19,67.0,56.3,33.0,27.0,23.9,15.0,63,31,19,0.00,40.00,5,2,14,0.00
2013-6-20,70.0,53.4,35.0,28.0,22.7,18.0,59,34,16,0.00,40.00,4,1,11,0.00
2013-6-22,79.0,69.5,52.0,37.0,32.1,26.0,44,26,17,0.00,40.00,5,2,17,0.00
2013-6-23,69.0,57.7,46.0,46.0,35.1,26.0,92,46,24,0.00,40.00,5,1,15,0.00
2013-6-24,54.0,49.3,46.0,54.0,47.6,40.0,100,95,69,0.00,40.00,3,0,13,0.88
2013-6-25,63.0,55.3,49.0,59.0,53.6,49.0,100,95,67,0.00,40.00,3,0,16,0.62
2013-6-26,78.0,64.9,49.0,62.0,53.7,49.0,100,72,42,0.00,40.00,4,1,13,0.06
2013-7-4,93.0,78.9,65.0,55.0,49.4,42.0,59,37,22,0.00,40.00,5,2,16,0.00
2013-7-5,89.0,78.2,59.0,52.0,38.6,26.0,60,28,11,0.00,40.00,7,3,21,0.00
2013-7-6,88.0,74.2,55.0,45.0,36.8,31.0,50,28,15,0.00,40.00,6,2,19,0.00
2013-7-7,88.0,78.9,56.0,45.0,37.0,33.0,48,24,15,0.00,40.00,5,2,16,0.00
2013-7-8,88.0,72.2,51.0,41.0,36.1,30.0,45,29,14,0.00,40.00,6,2,17,0.00
2013-7-9,87.0,77.7,54.0,45.0,34.5,29.0,42,23,15,0.00,40.00,5,3,16,0.00
2013-7-10,87.0,75.4,55.0,45.0,31.8,-99.9,49,24,14,0.00,40.00,7,3,18,0.00
2013-7-11,85.0,69.9,55.0,46.0,38.1,33.0,57,34,16,0.00,40.00,6,2,18,0.00
2013-7-12,84.0,72.2,49.0,48.0,39.3,29.0,61,33,15,0.00,40.00,5,3,14,0.00
2013-7-13,83.0,69.9,47.0,40.0,36.1,28.0,60,33,15,0.00,40.00,5,2,13,0.00
2013-7-14,88.0,75.2,52.0,47.0,39.5,30.0,58,31,14,0.00,40.00,6,3,15,0.00
2013-7-15,85.0,76.8,55.0,47.0,44.0,41.0,58,33,23,0.00,40.00,5,2,14,0.00
2013-7-16,81.0,73.7,53.0,42.0,39.3,33.0,63,31,18,0.00,40.00,6,4,17,0.00
2013-7-17,84.0,71.5,47.0,44.0,39.2,28.0,70,34,17,0.00,40.00,5,2,12,0.00
2013-7-18,87.0,75.3,50.0,47.0,43.7,38.0,63,35,20,0.00,40.00,4,2,12,0.00
2013-7-19,92.0,78.7,54.0,50.0,46.2,38.0,59,35,20,0.00,40.00,5,2,14,0.00
2013-7-20,96.0,78.4,57.0,52.0,43.8,-99.9,60,34,15,0.00,40.00,4,2,12,0.00
2013-7-21,95.0,80.4,60.0,56.0,52.2,49.0,69,40,26,0.00,40.00,5,2,12,0.00
2013-7-22,89.0,75.4,58.0,56.0,45.6,41.0,70,38,21,0.00,40.00,4,2,11,0.00
2013-7-23,82.0,69.9,59.0,61.0,52.6,43.0,100,58,32,0.00,40.00,3,2,9,0.16
2013-7-24,87.0,76.0,54.0,56.0,51.4,48.0,84,45,28,0.00,40.00,4,2,14,0.00
2013-7-25,89.0,73.9,57.0,55.0,52.1,46.0,77,49,32,0.00,40.00,8,2,19,0.00
2013-7-26,88.0,72.3,59.0,57.0,51.1,47.0,71,50,28,0.00,40.00,5,2,13,0.00
2013-7-27,87.0,75.4,57.0,49.0,45.8,42.0,69,38,22,0.00,40.00,5,2,14,0.00
2013-7-28,85.0,72.3,55.0,50.0,43.4,36.0,68,39,19,0.00,40.00,5,2,16,0.00
2013-7-29,85.0,68.0,51.0,43.0,38.7,32.0,64,39,17,0.00,40.00,6,2,20,0.00
2013-7-30,84.0,71.9,52.0,48.0,39.8,36.0,62,34,18,0.00,40.00,5,3,16,0.00
2013-7-31,82.0,69.5,54.0,45.0,39.7,36.0,55,36,21,0.00,40.00,5,2,14,0.00
2013-8-1,79.0,66.4,49.0,32.0,26.3,18.0,52,25,11,0.00,40.00,7,3,18,0.00
2013-8-2,80.0,69.1,44.0,35.0,27.3,17.0,48,24,11,0.00,40.00,5,3,13,0.00
2013-8-3,81.0,67.9,47.0,42.0,37.1,33.0,59,35,20,0.00,40.00,5,2,15,0.00
2013-8-4,84.0,71.0,47.0,41.0,36.5,32.0,55,31,18,0.00,40.00,6,3,16,0.00
2013-8-5,85.0,72.3,51.0,40.0,35.9,29.0,58,29,16,0.00,40.00,4,2,14,0.00
2013-8-6,83.0,69.1,50.0,40.0,37.2,32.0,55,34,20,0.00,40.00,5,2,13,0.00
2013-8-7,79.0,65.5,52.0,45.0,40.7,35.0,66,42,23,0.00,40.00,5,3,15,0.00
2013-8-8,73.0,59.9,48.0,43.0,40.4,38.0,74,52,30,0.00,40.00,5,2,20,0.00
2013-8-9,77.0,62.9,48.0,45.0,38.5,29.0,71,44,18,0.00,40.00,5,3,16,0.00
2013-8-10,78.0,65.7,46.0,41.0,37.1,31.0,66,38,18,0.00,40.00,6,3,15,0.00
2013-8-11,79.0,66.9,44.0,41.0,37.3,32.0,73,37,21,0.00,40.00,6,2,15,0.00
2013-8-12,81.0,68.3,48.0,41.0,38.5,35.0,67,37,20,0.00,40.00,6,3,15,0.00
2013-8-13,86.0,72.6,49.0,37.0,31.1,-99.9,60,25,13,0.00,40.00,5,3,15,0.00
2013-8-14,86.0,70.6,49.0,35.0,30.3,-99.9,49,26,12,0.00,40.00,5,2,16,0.00
2013-8-15,88.0,64.2,49.0,35.0,11.7,-99.9,45,19,6,0.00,40.00,6,3,18,0.00
2013-8-16,88.0,72.5,49.0,34.0,25.1,-99.9,42,20,10,0.00,40.00,5,3,14,0.00
2013-8-17,88.0,73.7,53.0,41.0,34.3,-99.9,46,27,15,0.00,40.00,5,3,14,0.00
2013-8-18,90.0,71.0,56.0,45.0,41.2,38.0,54,37,19,0.00,40.00,4,2,12,0.00
2013-8-19,89.0,71.0,62.0,55.0,33.1,-99.9,57,37,22,0.00,40.00,4,2,14,0.01
2013-8-20,87.0,72.7,61.0,50.0,42.2,-99.9,54,38,20,0.00,40.00,5,2,15,0.00
2013-8-21,87.0,72.1,57.0,52.0,47.2,43.0,72,44,22,0.00,40.00,6,2,16,0.03
2013-8-22,83.0,71.2,54.0,50.0,40.0,36.0,70,36,19,0.00,40.00,6,3,20,0.00
2013-8-23,79.0,69.3,47.0,41.0,37.7,33.0,58,34,21,0.00,40.00,5,3,18,0.00
2013-8-24,79.0,65.4,48.0,41.0,34.0,-99.9,66,36,17,0.00,40.00,6,3,16,0.00
2013-8-25,77.0,66.1,49.0,44.0,41.5,36.0,72,44,29,0.00,40.00,8,4,20,0.00
2013-8-26,80.0,66.8,48.0,47.0,43.0,38.0,75,46,23,0.00,40.00,6,3,18,0.00
2013-8-27,75.0,67.2,50.0,45.0,41.0,33.0,69,40,23,0.00,40.00,3,2,9,0.00
2013-8-28,82.0,72.7,58.0,52.0,46.2,42.0,56,40,27,0.00,40.00,5,3,17,0.00
2013-8-29,83.0,73.5,53.0,47.0,40.2,35.0,69,32,19,0.00,40.00,7,4,19,0.00
2013-8-30,89.0,75.3,51.0,48.0,38.4,28.0,65,31,11,0.00,40.00,7,3,17,0.00
2013-8-31,86.0,72.7,53.0,40.0,34.9,-99.9,41,27,17,0.00,40.00,5,2,16,0.00
2013-9-1,81.0,67.3,56.0,48.0,43.2,34.0,66,43,30,0.00,40.00,5,2,15,0.00
2013-9-2,80.0,67.6,58.0,55.0,52.0,47.0,84,59,40,0.00,40.00,7,2,18,0.00
2013-9-3,82.0,69.1,56.0,52.0,50.7,48.0,78,55,34,0.00,40.00,6,3,20,0.00
2013-9-4,84.0,71.6,52.0,52.0,48.6,45.0,78,47,30,0.00,40.00,5,2,17,0.00
2013-9-5,80.0,69.0,53.0,50.0,44.4,38.0,74,43,26,0.00,40.00,6,3,19,0.00
2013-9-6,84.0,73.6,55.0,45.0,41.3,39.0,64,33,22,0.00,40.00,7,3,16,0.00
2013-9-7,86.0,71.8,51.0,42.0,35.5,-99.9,56,30,16,0.00,40.00,5,2,15,0.00
2013-9-8,87.0,75.6,56.0,41.0,32.0,24.0,56,22,14,0.00,40.00,5,3,13,0.00
2013-9-9,89.0,76.3,56.0,39.0,34.4,29.0,44,24,12,0.00,40.00,5,2,13,0.00
2013-9-10,89.0,74.3,58.0,40.0,34.3,25.0,48,26,11,0.00,40.00,6,2,13,0.00
2013-9-11,82.0,68.8,53.0,43.0,40.8,39.0,59,38,24,0.00,40.00,5,2,13,0.00
2013-9-12,81.0,67.7,53.0,47.0,42.3,38.0,59,42,22,0.00,40.00,5,2,13,0.00
2013-9-13,86.0,68.2,53.0,50.0,46.1,43.0,69,48,24,0.00,40.00,4,1,15,0.00
2013-9-14,84.0,68.4,53.0,47.0,42.9,-99.9,65,44,26,0.00,40.00,4,2,17,0.00
2013-9-15,83.0,68.2,54.0,45.0,40.1,37.0,66,39,22,0.00,40.00,7,3,19,0.00
2013-9-16,83.0,71.8,54.0,46.0,40.2,37.0,68,35,20,0.00,40.00,7,3,18,0.00
2013-9-17,72.0,60.3,43.0,45.0,36.0,23.0,74,44,16,0.00,40.00,8,4,22,0.00
2013-9-18,57.0,50.8,39.0,36.0,31.3,24.0,63,48,40,0.00,40.00,3,2,10,0.00
2013-9-19,81.0,67.5,43.0,34.0,28.3,19.0,47,25,12,0.00,40.00,5,3,16,0.00
2013-9-20,75.0,62.3,45.0,40.0,31.6,21.0,76,37,16,0.00,40.00,7,3,19,0.00
2013-9-21,55.0,42.5,34.0,47.0,38.4,-99.9,99,90,60,0.00,40.00,5,2,15,1.17
2013-9-22,62.0,45.0,33.0,44.0,38.9,33.0,99,83,46,0.00,40.00,4,1,11,0.01
2013-9-23,74.0,59.5,38.0,45.0,39.0,30.0,98,53,22,0.00,40.00,4,2,13,0.01
2013-9-24,69.0,58.8,42.0,45.0,40.6,35.0,93,55,29,0.00,40.00,6,3,19,0.00
2013-9-25,54.0,43.3,32.0,40.0,32.4,28.0,93,68,40,0.00,40.00,5,2,13,0.00
2013-9-26,59.0,42.7,32.0,29.0,24.6,21.0,86,53,26,0.00,40.00,5,2,14,0.00
2013-10-2,67.0,54.1,39.0,42.0,33.0,26.0,91,50,21,0.00,40.00,6,3,17,0.00
2013-10-3,60.0,50.8,41.0,30.0,18.2,9.0,58,29,20,0.00,40.00,9,4,26,0.00
2013-10-4,65.0,49.6,39.0,17.0,10.4,4.0,37,23,9,0.00,40.00,7,3,24,0.00
2013-10-5,73.0,59.3,40.0,26.0,18.0,4.0,42,22,11,0.00,40.00,5,2,14,0.00
2013-10-6,74.0,58.6,40.0,27.0,19.9,15.0,48,25,12,0.00,40.00,4,2,11,0.00
2013-10-7,71.0,60.9,39.0,22.0,18.3,9.0,47,22,10,0.00,40.00,5,3,14,0.00
2013-10-8,66.0,55.8,41.0,27.0,23.9,20.0,55,31,18,0.00,40.00,6,2,17,0.00
2013-10-9,54.0,43.9,36.0,36.0,28.8,25.0,85,56,35,0.00,40.00,5,2,17,0.00
2013-10-10,60.0,46.8,32.0,36.0,33.2,28.0,89,63,37,0.00,40.00,5,2,12,0.00
2013-10-11,64.0,48.9,31.0,34.0,31.2,26.0,92,56,24,0.00,40.00,5,2,11,0.00
2013-10-12,63.0,47.0,33.0,34.0,29.5,-99.9,86,57,24,0.00,40.00,5,2,16,0.00
2013-10-13,63.0,46.0,34.0,39.0,32.8,27.0,98,65,25,0.00,40.00,5,2,12,0.07
2013-10-14,68.0,48.0,31.0,29.0,23.8,16.0,74,44,14,0.00,40.00,3,2,10,0.01
2013-10-15,66.0,53.6,36.0,25.0,17.1,13.0,54,27,13,0.00,40.00,5,3,16,0.00
2013-10-16,68.0,52.7,33.0,29.0,23.2,4.0,58,34,19,0.00,40.00,5,2,13,0.00
2013-10-17,70.0,53.7,34.0,28.0,24.8,16.0,68,38,14,0.00,40.00,4,2,10,0.00
2013-10-18,75.0,60.2,37.0,29.0,24.6,16.0,48,29,12,0.00,40.00,5,2,12,0.00
2013-10-19,73.0,53.4,39.0,29.0,23.3,-99.9,58,36,15,0.00,40.00,4,2,13,0.00
2013-10-20,77.0,56.2,38.0,31.0,24.6,18.0,50,33,12,0.00,40.00,4,2,11,0.00
2013-10-21,77.0,61.3,43.0,28.0,22.7,15.0,42,25,10,0.00,40.00,4,2,12,0.00
2013-10-22,76.0,57.5,40.0,23.0,16.6,13.0,38,23,9,0.00,40.00,5,2,11,0.00
2013-10-23,76.0,54.5,41.0,26.0,20.3,17.0,42,29,12,0.00,40.00,5,2,15,0.00
2013-10-24,74.0,52.9,38.0,26.0,20.0,17.0,44,30,12,0.00,40.00,5,2,15,0.00
2013-10-25,73.0,51.2,37.0,22.0,18.0,15.0,43,30,11,0.00,40.00,4,2,12,0.00
2013-10-26,75.0,53.2,38.0,27.0,18.4,-99.9,41,28,10,0.00,40.00,4,1,13,0.00
2013-10-27,69.0,49.7,37.0,34.0,20.6,14.0,79,35,16,0.00,40.00,7,3,21,0.00
2013-10-28,39.0,33.9,32.0,36.0,31.4,-99.9,99,95,79,0.00,40.00,4,1,19,0.61
2013-10-29,39.0,34.5,31.0,37.0,33.8,31.0,100,97,90,0.00,40.00,0,0,2,0.34
2013-10-30,54.0,36.8,27.0,40.0,31.3,25.0,99,83,48,0.00,40.00,3,1,7,0.03
2013-10-31,64.0,45.7,31.0,40.0,32.3,26.0,95,64,31,0.00,40.00,5,2,10,0.02
2013-11-1,67.0,45.4,31.0,35.0,27.6,20.0,79,54,22,0.00,40.00,5,1,11,0.00
2013-11-2,65.0,46.5,33.0,34.0,26.5,-99.9,76,52,22,0.00,40.00,5,2,14,0.00
2013-11-3,56.0,45.6,33.0,41.0,37.4,30.0,91,74,55,0.00,40.00,4,2,12,0.00
2013-11-4,52.0,39.8,29.0,35.0,18.5,11.0,95,47,21,0.00,40.00,8,3,23,0.00
2013-11-5,62.0,44.0,31.0,30.0,19.4,11.0,68,40,15,0.00,40.00,4,2,12,0.00
2013-11-6,65.0,47.8,35.0,37.0,30.2,24.0,72,53,29,0.00,40.00,4,2,10,0.00
2013-11-7,67.0,57.9,37.0,32.0,21.3,15.0,66,29,13,0.00,40.00,5,3,13,0.00
2013-11-8,66.0,62.5,50.0,31.0,26.0,23.0,47,26,19,0.00,40.00,4,3,13,0.00
2013-11-9,66.0,57.0,46.0,35.0,25.8,-99.9,53,34,26,0.00,40.00,4,2,10,0.00
2013-11-10,71.0,63.5,37.0,28.0,20.0,11.0,62,21,10,0.00,40.00,3,2,11,0.00
2013-11-11,73.0,57.4,35.0,27.0,18.5,8.0,38,24,12,0.00,40.00,3,2,9,0.00
2013-11-12,66.0,58.7,41.0,36.0,25.9,21.0,59,30,18,0.00,40.00,4,2,12,0.00
2013-11-13,70.0,57.0,39.0,39.0,34.2,26.0,76,46,27,0.00,40.00,4,2,10,0.00
2013-11-14,66.0,50.0,35.0,33.0,27.3,18.0,69,43,23,0.00,40.00,4,2,11,0.00
2013-11-15,58.0,42.4,31.0,35.0,30.1,26.0,89,65,29,0.00,40.00,5,1,13,0.00
2013-11-16,55.0,44.4,33.0,32.0,26.9,-99.9,92,57,32,0.00,40.00,4,2,11,0.00
2013-11-17,57.0,41.5,29.0,36.0,30.6,22.0,93,69,34,0.00,40.00,4,1,11,0.00
2013-11-18,56.0,44.3,29.0,36.0,32.5,26.0,92,66,42,0.00,40.00,5,2,15,0.00
2013-11-19,50.0,42.2,37.0,42.0,39.0,32.0,98,89,74,0.00,40.00,2,0,7,0.24
2013-11-20,43.0,38.2,33.0,42.0,37.6,32.0,99,97,93,0.00,40.00,1,0,5,1.58
2013-11-21,39.0,34.5,31.0,35.0,24.5,14.0,99,69,46,0.00,40.00,13,8,51,0.34
2013-11-22,44.0,37.7,31.0,14.0,5.7,2.0,46,26,19,0.00,40.00,17,8,47,0.01
2013-11-23,51.0,41.5,31.0,13.0,7.5,-99.9,46,27,19,0.00,40.00,9,4,21,0.00
2013-11-24,52.0,41.3,29.0,31.0,22.4,11.0,82,49,29,0.00,40.00,4,2,11,0.00
2013-11-25,56.0,39.0,28.0,36.0,25.4,17.0,92,60,40,0.00,40.00,4,2,12,0.00
2013-11-26,62.0,43.3,32.0,35.0,25.9,16.0,82,53,18,0.00,40.00,3,1,10,0.00
2013-11-27,58.0,42.8,32.0,31.0,26.4,22.0,75,54,32,0.00,40.00,3,1,11,0.00
2013-11-28,56.0,40.9,31.0,33.0,28.4,25.0,87,64,34,0.00,40.00,4,1,9,0.00
2013-11-29,59.0,39.9,29.0,33.0,29.0,25.0,89,69,30,0.00,40.00,4,1,11,0.00
2013-11-30,59.0,39.1,29.0,35.0,26.2,-99.9,85,65,37,0.00,40.00,3,1,10,0.00
2013-12-1,63.0,43.0,31.0,37.0,27.5,23.0,74,57,24,0.00,40.00,4,1,9,0.00
2013-12-2,62.0,46.2,35.0,31.0,24.8,20.0,73,47,20,0.00,40.00,3,2,14,0.00
2013-12-3,45.0,32.7,19.0,39.0,27.6,10.0,97,82,58,0.00,40.00,4,2,22,0.22
2013-12-4,38.0,24.2,15.0,20.0,12.3,4.0,89,64,26,0.00,40.00,4,2,10,0.07
2013-12-5,35.0,22.0,12.0,15.0,10.0,5.0,86,64,28,0.00,40.00,4,1,9,0.02
2013-12-6,31.0,24.9,13.0,22.0,13.2,8.0,92,63,38,0.00,40.00,5,2,13,0.00
2013-12-7,25.0,20.6,12.0,22.0,16.4,-99.9,93,87,79,0.00,40.00,5,2,14,0.00
2013-12-8,31.0,17.3,5.0,21.0,11.0,0.0,89,77,59,0.00,40.00,3,2,11,0.23
2013-12-9,45.0,29.0,19.0,27.0,19.6,13.0,93,71,30,0.00,40.00,3,1,15,0.14
2013-12-10,55.0,36.1,23.0,31.0,21.8,11.0,79,58,37,0.00,40.00,4,2,10,0.04
2013-12-11,58.0,46.2,28.0,23.0,17.5,10.0,69,36,15,0.00,40.00,4,2,8,0.00
2013-12-12,57.0,39.4,26.0,21.0,16.3,11.0,71,43,16,0.00,40.00,4,2,9,0.00
2013-12-13,55.0,42.7,24.0,24.0,17.0,8.0,60,38,19,0.00,40.00,4,2,11,0.00
2013-12-14,60.0,39.7,28.0,26.0,16.1,-99.9,56,42,17,0.00,40.00,3,1,8,0.00
2013-12-15,67.0,45.3,33.0,28.0,21.8,16.0,60,42,20,0.00,40.00,3,1,9,0.00
2013-12-16,71.0,49.4,36.0,32.0,22.9,18.0,56,38,14,0.00,40.00,3,2,10,0.00
2013-12-17,65.0,47.1,37.0,37.0,27.1,20.0,58,46,34,0.00,40.00,4,2,9,0.00
2013-12-18,62.0,48.9,34.0,38.0,31.1,25.0,81,53,28,0.00,40.00,5,2,19,0.00
2013-12-19,41.0,34.1,29.0,32.0,21.1,8.0,97,61,40,0.00,40.00,9,3,27,0.07
2013-12-20,53.0,35.9,23.0,26.0,13.6,-13.0,76,45,8,0.00,40.00,9,2,18,0.02
2013-12-21,59.0,40.5,30.0,31.0,22.4,-99.9,92,56,22,0.00,40.00,5,2,12,0.00
2013-12-22,60.0,43.8,30.0,31.0,24.3,15.0,76,48,31,0.00,40.00,4,2,14,0.00
2013-12-23,59.0,44.1,31.0,31.0,28.0,21.0,79,56,31,0.00,40.00,3,1,11,0.00
2013-12-24,65.0,44.2,33.0,33.0,22.7,11.0,69,46,14,0.00,40.00,3,1,11,0.00
2013-12-25,65.0,49.0,33.0,25.0,15.9,2.0,44,29,11,0.00,40.00,4,1,8,0.00
2013-12-26,66.0,46.7,32.0,29.0,17.3,8.0,46,32,17,0.00,40.00,4,2,10,0.00
2013-12-27,62.0,46.5,34.0,30.0,17.5,6.0,42,31,22,0.00,40.00,3,1,9,0.00
2013-12-28,58.0,43.6,29.0,11.0,6.0,-99.9,36,23,13,0.00,40.00,9,4,23,0.00
2013-12-29,65.0,47.1,34.0,25.0,11.9,-12.0,56,29,8,0.00,40.00,7,2,24,0.00
2013-12-30,60.0,49.8,31.0,29.0,20.3,17.0,56,34,19,0.00,40.00,5,2,10,0.00
2013-12-31,60.0,51.2,35.0,27.0,20.0,11.0,52,32,14,0.00,40.00,4,2,8,0.00